KJ6EI Weather Reports


time (UTC)temp
C
wind
direction
speed
KPH
gust
KPH
rain 1hr
cm
rain 24hr
cm
rain mn
cm
humidity
%
barometer
mb
20260504190016 25 123 0.0 1.6 0.00 0.00 0.00 46 1009.2
20260504184513 24 123 0.0 3.2 0.00 0.00 0.00 50 1009.2
20260504183011 23 123 0.0 3.2 0.00 0.00 0.00 51 1009.3
20260504181507 23 123 0.0 1.6 0.00 0.00 0.00 52 1009.3
20260504180004 22 122 0.0 3.2 0.00 0.00 0.00 52 1009.3
20260504174502 22 122 0.0 3.2 0.00 0.00 0.00 55 1009.2
20260504173058 20 122 0.0 3.2 0.00 0.00 0.00 58 1009.3
20260504171553 19 121 0.0 3.2 0.00 0.00 0.00 58 1009.4
20260504100117 12 119 1.6 4.8 0.00 0.00 0.00 82 1008.5
20260504081548 12 132 1.6 4.8 0.00 0.00 0.00 81 1008.1
20260504044535 16 222 0.0 0.0 0.00 0.00 0.00 71 1008.1
20260504043039 16 222 0.0 0.0 0.00 0.00 0.00 69 1008.2
20260504041527 17 222 0.0 0.0 0.00 0.00 0.00 68 1008.2
20260504040027 17 222 0.0 0.0 0.00 0.00 0.00 70 1008.1
20260504034526 17 222 0.0 0.0 0.00 0.00 0.00 66 1008.1
20260504033027 18 222 0.0 0.0 0.00 0.00 0.00 58 1008.0
20260504031526 19 222 0.0 0.0 0.00 0.00 0.00 57 1008.1
20260504030025 20 222 0.0 0.0 0.00 0.00 0.00 55 1008.1
20260504024525 20 222 0.0 0.0 0.00 0.00 0.00 55 1008.1
20260504023024 21 222 0.0 0.0 0.00 0.00 0.00 53 1008.2
20260504021523 21 222 0.0 0.0 0.00 0.00 0.00 50 1008.2
20260504020020 22 222 0.0 0.0 0.00 0.00 0.00 46 1008.4
20260504014518 22 222 0.0 0.0 0.00 0.00 0.00 49 1008.6
20260504013020 22 222 0.0 0.0 0.00 0.00 0.00 48 1008.6
20260504011516 23 222 0.0 0.0 0.00 0.00 0.00 40 1008.7
20260504010014 23 222 0.0 0.0 0.00 0.00 0.00 41 1009.0
20260504004518 23 222 0.0 0.0 0.00 0.00 0.00 47 1009.2
20260504003010 24 222 0.0 0.0 0.00 0.00 0.00 41 1009.4
20260504001509 25 222 0.0 0.0 0.00 0.00 0.00 43 1009.6
20260504000006 26 222 0.0 0.0 0.00 0.00 0.00 39 1009.8
20260503234509 27 222 0.0 0.0 0.00 0.00 0.00 35 1009.9
20260503233005 27 222 0.0 0.0 0.00 0.00 0.00 32 1010.0
20260503231502 27 222 0.0 0.0 0.00 0.00 0.00 32 1010.2
20260503230117 27 222 0.0 3.2 0.00 0.00 0.00 31 1010.3
20260503224604 27 222 1.6 3.2 0.00 0.00 0.00 34 1010.5
20260503223056 28 222 1.6 8.0 0.00 0.00 0.00 35 1010.7
20260503221556 27 249 0.0 3.2 0.00 0.00 0.00 36 1011.0
20260503220053 27 249 0.0 3.2 0.00 0.00 0.00 37 1011.1
20260503214551 26 221 0.0 6.4 0.00 0.00 0.00 37 1011.3
20260503213100 26 268 0.0 3.2 0.00 0.00 0.00 37 1011.3
20260503211607 26 315 1.6 4.8 0.00 0.00 0.00 38 1011.5
20260503210049 26 261 1.6 3.2 0.00 0.00 0.00 40 1011.7
20260503204545 26 261 1.6 4.8 0.00 0.00 0.00 41 1012.0
20260503203049 26 248 1.6 6.4 0.00 0.00 0.00 40 1012.1
20260503201542 27 267 0.0 4.8 0.00 0.00 0.00 38 1012.4
20260503200053 25 269 1.6 9.7 0.00 0.00 0.00 40 1012.5
20260503194534 25 309 1.6 9.7 0.00 0.00 0.00 43 1012.8
20260503193035 22 210 6.4 12.9 0.00 0.00 0.00 50 1012.9
20260503191528 22 252 6.4 11.3 0.00 0.00 0.00 50 1012.9